Regional Weather Roundup
Issued by NWS

Home | Current Version | Previous Version | Text Only | Print | Product List | Glossary Off
Versions: 1 2 3 4 5 6 7 8 9 10 11 12 13 14 15 16 17 18 19 20 21 22 23 24 25 26 27 28 29 30 31 32 33 34 35 36 37 38 39 40 41 42 43 44 45 46 47 48 49 50

000
ASUS43 KTOP 240508
RWRKS

WEATHER ROUNDUP FOR KANSAS
NATIONAL WEATHER SERVICE GOODLAND KS
1100 PM CST THU NOV 23 2017

NOTE:  "FAIR" INDICATES FEW OR NO CLOUDS BELOW 12,000 FEET WITH NO
SIGNIFICANT WEATHER AND/OR OBSTRUCTIONS TO VISIBILITY.

KSZ001>006-013>018-027>032-041>047-240600-
NORTHWEST KANSAS

CITY           SKY/WX    TMP DP  RH WIND       PRES   REMARKS
GOODLAND       CLEAR     52  35  52 SW14      29.86F
HAYS           CLEAR     49  39  68 SW9       29.84F
HILL CITY      CLEAR     56  41  57 W10       29.82F
RUSSELL        CLEAR     55  41  59 S17       29.82F
$$

KSZ061>065-074>080-084>089-240600-
SOUTHWEST KANSAS

CITY           SKY/WX    TMP DP  RH WIND       PRES   REMARKS
DODGE CITY     CLOUDY    50  37  61 S8        29.91F
ELKHART        CLOUDY    56  37  48 SW15      29.94F
GARDEN CITY    CLOUDY    51  37  58 S10       29.90F
GREAT BEND     CLEAR     53  39  59 S12       29.86F
LIBERAL        PTCLDY    47  36  65 SW8       29.93F
PRATT          PTCLDY    49  36  62 S8        29.89F
$$

KSZ066>073-081>083-090>101-240600-
SOUTHEAST KANSAS

CITY           SKY/WX    TMP DP  RH WIND       PRES   REMARKS
CHANUTE        PTCLDY    48  33  56 S7        29.93F
COFFEYVILLE    CLOUDY    45  32  60 S6        29.94F
HUTCHINSON     PTCLDY    49  38  65 S5        29.89F
MEDICINE LODGE   N/A     51  38  60 S3        29.89F
NEWTON         PTCLDY    52  36  54 S12       29.90F
PARSONS        PTCLDY    49  32  52 S6        29.94F
WICHITA INTL   PTCLDY    46  37  71 S7        29.89F
WICHITA JABRA  PTCLDY    56  37  49 S15       29.90S
WICHITA MCCONL MOCLDY    52  35  51 SW10      29.90F
WINFIELD       CLOUDY    49  36  61 S6        29.92F
$$

KSZ007>012-019>026-033>040-048>060-102>105-240600-
NORTHEAST KANSAS

CITY           SKY/WX    TMP DP  RH WIND       PRES   REMARKS
CONCORDIA      CLOUDY    58  40  51 S18       29.79F
EMPORIA        CLOUDY    50  34  54 S12       29.89F
LAWRENCE       PTCLDY    46  36  68 SE6       29.88F
MANHATTAN      PTCLDY    45  37  73 CALM      29.84F
MARYSVILLE     CLOUDY    55  39  54 S8        29.81F
OLATHE IND     PTCLDY    47  36  65 S7        29.90F
OLATHE EXE     CLOUDY    48  35  60 S5        29.90S
SALINA         PTCLDY    53  40  61 S10       29.84F
TOPEKA BILLARD CLOUDY    55  37  50 S8        29.86F
TOPEKA FORBES  CLOUDY    53  36  52 S12       29.86F
$$




USA.gov is the U.S. government's official web portal to all federal, state and local government web resources and services.